Wind_Speed
8 8 7 6 6 7 7 7 9 9 10 10 10 10 9 9 8 6 4 3 1 1 1 2 2 3 4 4 5 6 6 7 8 11 11 4 3 5 6 8 9 9 10 9 7 5 4 3 6 8 8 8 5 4 5 3 4 3 1 1 1 2 2 3 5 3 1 5 7 8 10 8 3 3 6 7 11 17 14 11 14 16 9 6 10 14 25 25
7 6 6 6 6 7 7 8 9 9 9 9 9 10 9 8 8 6 4 3 1 0 1 1 2 3 4 4 5 6 6 7 7 8 7 4 5 6 7 10 9 10 9 8 7 5 5 5 7 8 7 6 3 4 4 4 5 2 1 1 2 3 3 3 4 2 4 7 10 12 13 7 4 6 8 7 10 15 13 9 11 10 7 9 12 19 27 26
6 6 6 6 7 7 8 9 9 9 9 9 8 9 9 8 7 6 4 3 2 0 1 2 2 3 4 4 5 6 6 5 2 3 4 3 3 7 9 11 10 10 9 8 6 5 6 7 8 8 7 5 3 4 3 4 5 1 1 2 3 3 4 5 7 8 9 11 9 10 11 5 5 6 7 8 9 10 10 10 10 11 12 14 17 24 29 26
8 8 7 8 8 8 9 9 10 10 9 9 8 8 8 8 7 6 5 3 2 1 1 2 2 3 4 4 5 5 6 3 4 5 4 4 1 5 9 11 11 11 10 7 6 6 7 7 7 7 6 3 2 3 2 3 4 2 3 3 2 2 4 8 10 12 12 10 6 7 9 2 5 5 8 12 10 6 8 11 11 16 20 19 23 28 28 26
8 8 8 9 9 9 10 10 10 10 10 9 8 8 7 7 7 6 5 3 2 1 1 2 3 3 3 4 4 3 4 3 4 5 4 4 2 4 7 12 12 11 10 7 6 6 7 8 7 6 5 2 2 2 2 3 4 3 4 4 4 3 4 10 11 12 11 8 6 6 7 1 3 4 12 14 9 4 7 12 10 16 23 23 28 30 27 27
9 9 9 10 10 9 10 10 11 11 11 10 9 8 7 6 6 6 5 4 2 1 2 2 2 3 3 3 2 2 2 2 4 4 2 3 3 4 6 10 11 11 9 7 6 5 7 8 6 5 3 1 2 1 1 4 5 4 3 4 8 8 7 12 13 12 11 8 7 5 5 2 3 4 14 13 3 2 6 11 10 14 21 24 29 30 28 27
8 9 9 10 10 10 10 11 12 12 12 11 10 7 6 5 5 5 5 4 3 2 2 2 2 2 2 1 2 1 2 3 5 5 2 1 3 3 5 8 9 10 8 7 5 6 8 8 6 5 2 1 1 1 1 3 6 4 3 3 8 10 10 15 16 15 14 13 12 8 6 5 5 4 12 11 2 1 2 7 10 15 21 25 29 29 28 27
7 8 9 10 11 11 11 11 12 13 14 13 11 8 5 4 4 5 5 4 4 3 2 2 2 2 1 1 3 2 3 5 7 6 2 4 4 4 5 7 8 8 8 6 5 7 8 6 5 4 2 1 1 2 1 2 3 3 4 4 6 8 12 17 18 17 17 17 16 10 5 4 5 4 8 11 6 2 0 6 11 17 23 26 28 28 27 27
6 7 8 9 11 11 11 12 13 13 14 14 13 11 7 5 4 5 5 4 4 3 3 2 2 2 1 2 3 3 4 6 9 5 3 5 5 6 6 6 8 8 8 7 8 9 7 5 4 3 1 1 1 2 2 2 2 5 7 5 6 10 14 17 15 13 12 12 10 4 0 2 4 4 5 8 9 4 2 8 12 18 24 26 27 27 27 26
5 6 7 8 9 10 11 12 12 13 14 14 13 12 10 7 5 5 5 4 3 3 3 3 3 2 2 3 3 2 3 7 9 6 6 6 4 7 7 6 7 8 9 9 10 10 7 5 4 4 1 1 1 2 1 2 1 5 8 9 11 14 14 11 8 7 6 7 6 1 3 4 3 3 2 4 8 6 5 10 14 20 25 27 27 27 26 24
4 4 6 6 7 9 10 10 11 12 13 14 14 12 10 9 7 6 5 4 3 3 3 3 3 2 2 2 2 2 3 7 9 8 9 9 6 5 5 5 7 9 10 11 10 8 6 4 4 5 1 0 3 2 3 4 4 5 6 9 10 9 7 5 4 5 3 3 2 2 4 3 0 1 0 3 8 8 7 12 17 22 25 27 28 26 25 22
4 4 4 5 6 7 8 9 10 11 12 14 14 12 10 9 8 7 6 5 4 4 4 3 3 2 2 2 1 1 3 6 8 7 9 10 9 8 7 7 8 10 10 9 7 4 3 1 4 4 0 2 3 1 2 4 6 5 3 5 7 3 1 5 4 2 2 2 2 5 3 1 2 1 2 4 10 10 9 13 19 24 26 27 27 26 25 23
5 5 4 4 5 6 7 8 9 10 12 13 14 12 10 8 8 7 6 6 5 5 5 4 4 3 3 2 1 2 3 5 6 6 5 7 8 9 9 10 10 10 8 6 5 2 1 2 4 4 3 3 2 1 4 6 5 3 1 2 5 2 2 8 6 2 3 3 3 4 1 1 3 3 2 7 12 12 12 15 20 23 24 26 27 27 26 25
6 5 5 4 3 5 6 7 9 10 11 12 13 12 9 8 7 7 6 6 5 5 6 5 5 3 3 2 2 2 2 3 4 3 3 4 6 6 7 8 7 6 5 4 2 1 2 3 4 4 4 4 4 4 5 4 2 2 1 0 2 0 2 7 5 4 4 4 3 2 2 1 2 6 2 9 13 13 14 16 19 22 24 25 28 28 27 27
7 6 6 5 4 4 5 7 8 9 10 11 12 11 9 7 6 7 7 7 6 6 5 5 5 4 3 1 2 1 2 4 3 2 3 3 3 4 6 6 4 4 3 2 1 2 2 2 3 2 4 4 4 3 2 1 2 2 0 1 2 1 1 3 3 5 4 2 1 1 2 1 2 6 1 10 12 12 12 15 19 22 24 26 29 29 29 28
7 7 6 6 5 5 6 7 7 8 9 11 11 9 8 8 4 5 8 8 6 6 5 3 3 4 2 2 4 4 4 5 2 2 4 4 3 4 5 4 4 4 3 3 2 3 2 2 2 1 2 1 1 0 0 0 1 2 2 1 1 2 2 2 3 6 3 0 3 3 2 1 2 4 2 10 12 11 10 12 18 22 24 27 30 31 30 30
7 7 6 6 6 6 6 6 6 7 8 9 11 8 8 9 5 2 6 8 8 7 5 3 1 2 1 3 3 3 5 5 2 3 4 5 4 4 2 2 3 3 4 2 1 2 3 2 1 0 1 1 1 1 0 0 1 1 1 1 0 1 1 2 1 5 6 2 4 4 2 2 2 3 4 11 12 11 10 12 16 21 24 27 30 31 31 31
7 6 6 5 5 5 5 4 5 5 7 8 9 8 7 10 6 1 5 10 9 7 5 2 1 1 1 2 0 3 5 4 2 3 4 5 4 4 3 1 0 2 2 4 5 3 4 2 1 1 1 1 1 1 1 1 1 1 1 2 1 1 1 2 1 4 8 4 3 2 2 3 4 3 4 11 13 11 9 10 13 17 22 25 28 31 31 32
6 6 5 5 4 3 3 2 2 4 7 7 8 7 7 10 5 2 8 13 8 3 2 1 1 1 1 2 2 4 5 3 3 4 4 5 4 4 4 2 1 1 2 3 2 2 2 1 1 1 1 1 1 1 0 1 1 1 1 1 1 1 1 2 1 3 5 2 2 1 2 3 5 4 2 9 12 10 8 8 11 14 18 22 26 30 32 32
6 5 5 4 3 2 1 1 2 4 6 5 7 6 6 11 4 0 13 14 4 3 4 4 6 7 4 2 1 4 4 1 4 5 5 4 4 4 4 2 1 1 2 1 1 2 1 1 1 1 2 2 2 1 2 3 3 2 2 2 1 1 1 1 1 2 2 1 1 1 2 3 6 5 1 5 8 9 9 9 10 13 16 21 26 30 32 33
5 5 5 4 2 2 2 2 3 4 5 4 6 6 6 8 3 4 13 10 5 8 7 5 7 9 6 2 2 5 4 1 4 5 5 5 5 5 3 1 1 1 1 0 1 1 1 1 1 3 3 1 1 3 4 3 3 2 2 2 2 2 1 0 1 2 2 1 0 1 2 2 4 5 1 3 6 9 11 12 12 14 17 21 26 30 33 33
4 5 5 3 2 3 3 3 3 4 4 4 6 7 8 8 5 7 8 6 10 11 6 4 7 8 6 4 5 5 3 1 3 6 6 6 7 5 3 2 1 1 1 0 1 0 0 1 3 3 2 3 4 4 4 3 3 2 2 2 2 1 2 1 0 1 2 1 0 1 3 3 3 4 3 2 5 7 10 14 16 17 18 22 26 30 32 33
3 4 4 2 2 3 2 3 3 2 3 4 5 6 8 8 8 10 6 5 9 8 4 4 5 6 4 3 3 2 3 2 3 6 8 9 8 6 5 3 1 1 1 1 2 1 1 1 1 2 5 4 4 3 4 4 2 2 2 2 1 0 2 1 1 2 2 2 1 0 3 3 1 2 3 2 4 6 7 11 17 19 20 22 26 29 31 34
3 3 3 2 1 1 2 2 3 2 1 2 4 6 8 9 11 12 7 3 5 4 4 3 2 3 2 2 1 2 3 3 3 4 8 11 9 6 5 4 2 1 1 1 3 3 2 1 4 5 3 3 3 3 4 3 2 1 2 3 2 1 2 2 1 2 1 1 2 1 3 2 0 1 2 1 3 6 6 6 10 15 19 21 23 26 30 33
3 3 2 0 1 1 1 0 1 2 1 2 4 6 9 11 13 11 5 1 2 3 3 2 2 1 1 1 2 2 2 3 4 4 7 10 10 6 3 3 2 1 1 2 2 2 2 1 5 4 2 2 3 3 4 4 2 1 4 7 5 3 3 2 1 2 1 0 3 3 4 1 1 0 3 1 3 3 4 4 3 4 11 17 21 25 28 31
3 3 2 1 2 2 2 1 1 2 2 3 5 8 11 12 12 8 2 1 0 2 2 1 1 1 2 1 2 3 2 1 3 4 8 9 8 6 3 3 0 0 3 3 1 1 0 2 2 2 3 3 2 1 4 4 3 1 3 6 5 4 3 3 1 1 2 2 2 2 3 3 1 1 3 1 3 3 2 2 3 2 4 11 18 21 24 27
4 4 3 2 3 5 4 3 4 4 4 5 7 10 12 12 9 5 1 2 1 1 2 1 0 1 1 1 3 3 1 1 3 1 7 9 8 6 3 1 0 1 3 2 0 0 2 2 2 2 3 3 1 1 3 6 5 1 0 4 7 5 4 4 2 1 1 2 0 1 1 3 3 0 1 1 3 3 1 3 2 2 2 6 11 15 18 23
5 4 4 3 3 4 5 5 6 6 6 8 10 11 11 8 5 3 0 2 1 2 2 1 1 1 1 1 5 4 2 2 2 1 4 9 9 4 3 4 3 3 2 2 1 0 2 2 1 1 1 1 2 0 5 8 3 1 1 3 5 4 3 3 2 1 1 2 3 1 1 3 4 0 1 1 3 2 3 5 5 5 6 7 7 10 14 19
6 4 4 3 3 2 2 4 5 5 7 9 10 10 8 5 3 0 2 1 2 1 1 1 1 1 2 0 3 4 3 2 2 1 3 7 8 3 1 4 5 4 2 1 3 1 1 2 2 3 2 2 1 1 4 7 2 1 4 5 6 5 5 3 1 2 2 2 5 2 1 3 4 1 1 1 0 1 3 5 5 6 9 9 10 11 12 15
6 5 3 3 3 3 4 4 5 6 7 8 9 8 5 2 0 1 2 0 1 1 1 2 2 3 4 1 1 3 1 1 4 2 4 5 5 2 4 4 4 4 1 2 1 2 2 1 2 2 2 1 3 3 1 1 3 4 4 4 6 4 3 2 2 1 1 3 4 1 1 3 3 1 1 1 1 2 4 4 5 8 11 12 13 13 13 13
5 4 4 4 4 4 5 5 4 5 6 7 7 5 2 1 1 2 1 1 0 2 2 2 2 3 4 2 1 5 2 2 6 4 2 2 2 2 3 2 2 2 1 1 1 3 3 1 2 2 2 3 4 4 3 2 3 3 1 2 3 1 1 1 1 1 3 4 1 3 2 3 5 2 1 1 2 3 4 4 5 8 12 15 16 16 15 13
3 4 5 5 5 5 6 6 7 6 4 6 5 1 1 0 0 1 0 1 0 1 1 1 2 2 3 2 2 4 2 2 5 4 1 1 1 1 1 0 1 1 1 0 0 3 3 2 1 2 2 3 2 3 3 1 2 2 2 2 2 1 1 1 1 1 4 3 1 3 1 2 5 4 1 1 1 2 2 3 5 8 12 15 17 16 15 13
1 3 3 3 3 5 5 7 8 7 6 6 2 2 3 1 0 1 1 1 0 0 1 1 2 2 1 1 3 3 1 2 3 2 1 1 1 2 1 1 1 1 1 0 0 3 3 1 1 1 1 1 2 3 2 2 3 4 3 3 3 2 1 2 2 1 4 2 2 1 1 1 3 2 1 1 1 2 2 3 5 7 10 12 13 14 14 12
1 2 1 2 3 4 5 7 8 7 7 5 1 3 3 1 1 1 1 1 1 1 1 1 1 2 2 2 2 3 1 1 3 3 2 1 1 2 1 2 2 1 1 1 1 1 2 2 1 0 0 2 1 2 1 2 3 2 1 1 3 3 2 3 3 3 4 0 2 1 2 2 2 1 2 2 2 3 4 5 5 6 7 8 10 14 16 14
3 3 3 4 3 3 5 6 7 7 5 3 2 3 1 2 1 0 1 1 2 1 1 1 1 2 3 2 1 2 1 1 2 2 3 3 1 1 2 2 3 2 1 1 1 1 2 3 1 2 2 1 1 1 1 2 3 1 0 1 2 2 2 1 1 1 2 0 1 2 2 2 1 1 1 1 1 3 5 6 6 7 8 9 11 16 20 20
4 4 4 4 4 3 4 5 6 5 3 1 3 2 1 2 1 1 1 1 1 0 1 1 2 2 1 1 1 2 3 3 2 2 2 2 1 1 1 1 2 1 0 1 1 1 1 2 1 2 1 1 2 0 1 1 2 2 2 3 1 1 3 2 0 2 1 3 2 1 2 2 1 1 2 2 2 3 4 5 6 7 8 10 13 17 22 23
5 5 5 5 5 4 2 5 6 4 2 1 2 1 2 1 2 2 0 1 1 1 1 0 1 1 0 0 1 2 3 2 2 2 1 0 1 2 2 2 1 1 2 2 2 1 2 2 1 1 1 2 3 1 3 3 1 2 2 3 3 1 2 2 1 2 0 4 2 1 3 3 3 2 4 5 3 2 2 4 4 6 7 10 13 17 23 24
7 4 5 6 5 4 2 5 7 2 0 1 1 1 1 1 2 2 2 2 1 1 1 1 0 0 1 1 1 2 2 2 1 2 1 0 1 1 2 1 1 2 2 3 2 1 1 3 1 0 1 3 4 1 2 4 4 1 1 2 2 3 2 1 2 1 2 3 1 1 2 2 5 3 5 8 7 4 1 2 3 4 7 8 10 17 22 24
9 3 6 5 3 3 3 6 6 1 1 1 1 1 1 1 2 1 2 2 1 1 0 1 0 1 1 1 1 1 1 1 0 0 0 0 1 1 2 0 2 3 3 2 1 1 0 2 1 1 1 3 3 1 2 1 3 2 1 2 1 2 2 1 1 1 3 3 1 1 1 2 4 2 4 9 8 5 3 2 1 2 4 5 9 15 19 22
8 3 4 5 3 3 4 5 4 1 1 0 1 1 0 1 2 2 3 3 0 1 0 1 1 0 1 1 1 1 0 0 2 1 0 1 1 1 2 1 2 3 3 2 2 0 1 1 2 0 1 3 1 1 2 0 2 1 2 2 1 1 0 1 1 1 1 2 2 2 3 2 1 1 4 8 9 6 4 3 1 0 2 5 9 12 16 20
8 2 3 4 4 4 4 2 1 1 1 0 1 1 1 1 1 3 5 4 2 1 1 2 2 1 1 1 1 2 1 0 1 1 1 1 0 0 1 2 2 3 2 2 2 1 0 1 2 2 2 3 0 1 1 1 0 1 1 2 1 1 2 3 3 1 0 2 2 2 3 2 2 1 3 5 6 5 4 2 2 1 3 6 9 12 15 18
7 2 3 7 7 4 2 1 1 1 1 1 1 2 2 2 1 2 4 5 3 1 1 1 1 1 2 1 1 2 2 1 1 1 1 1 1 1 2 6 4 3 1 1 1 1 1 1 1 3 4 3 2 1 1 2 1 0 1 0 1 1 2 4 4 2 2 1 1 1 2 1 1 0 1 2 3 3 3 5 4 1 5 7 9 12 15 17
8 6 7 9 8 2 1 0 1 1 0 1 1 2 2 2 0 1 3 4 3 1 1 1 1 1 1 1 1 3 2 2 2 0 0 1 2 1 5 8 3 2 0 1 1 0 2 1 1 2 2 2 2 1 1 1 2 1 0 1 1 1 0 2 2 1 2 3 3 2 3 2 1 1 0 1 1 2 4 6 4 1 5 8 10 12 14 15
10 9 6 8 8 3 2 1 1 1 1 2 2 1 1 1 1 2 2 2 2 1 1 1 1 1 0 1 1 2 1 1 1 1 1 1 2 1 5 9 4 2 1 0 1 1 1 1 1 2 3 3 2 2 2 2 2 1 0 1 0 1 3 1 1 1 3 3 3 4 4 2 2 1 1 1 0 1 3 4 3 1 5 8 10 12 13 13
9 5 4 11 11 3 4 2 1 1 1 1 2 2 2 1 2 3 2 1 2 1 1 1 1 1 1 1 1 2 2 0 0 1 1 1 0 1 5 9 7 4 3 3 1 2 1 1 2 3 4 4 4 4 3 1 1 1 0 1 1 2 3 1 1 2 3 2 3 4 2 1 2 2 3 2 0 2 5 4 3 4 6 7 10 12 11 11
4 2 3 9 13 12 11 8 5 2 1 1 1 2 2 1 2 5 2 2 3 2 1 1 1 1 1 1 1 1 2 2 1 1 2 1 0 1 4 5 7 6 4 5 4 1 1 0 2 4 6 6 6 4 1 1 2 2 1 2 2 1 1 1 1 3 3 2 3 4 1 1 5 7 8 6 2 3 5 5 6 8 8 8 10 11 10 10
3 1 2 4 7 9 9 10 10 4 0 1 0 1 2 1 3 3 3 2 3 3 2 2 2 1 0 1 2 1 1 1 1 1 1 0 1 2 4 2 5 8 5 4 5 2 1 1 1 3 5 5 4 2 1 1 4 4 3 4 3 2 2 3 4 3 3 2 5 4 4 4 5 7 9 8 6 5 6 6 7 10 11 10 11 11 10 9
4 2 3 3 2 2 2 6 8 4 1 2 1 0 2 2 2 2 2 3 3 3 2 1 3 3 1 0 1 2 1 1 1 0 1 1 1 1 2 2 3 7 5 3 4 3 1 2 2 2 4 3 2 3 2 3 4 4 4 6 6 4 4 6 7 4 5 7 6 5 8 8 6 5 7 7 6 7 7 8 9 11 12 12 12 11 9 8
6 4 4 5 2 1 2 5 5 2 2 3 2 2 2 2 2 1 2 2 3 4 3 0 1 4 3 1 0 1 1 1 0 0 2 1 1 0 0 1 0 4 5 2 3 2 1 2 2 2 3 3 4 3 2 3 4 4 6 7 6 6 7 8 8 5 6 9 4 2 7 9 5 5 5 3 3 5 6 8 10 10 11 12 12 10 8 7
7 5 5 4 3 4 6 6 3 1 2 3 2 2 2 2 3 3 1 2 2 2 3 1 0 2 2 2 2 2 1 2 2 1 1 1 1 1 1 1 2 1 3 1 1 1 1 1 2 2 3 4 3 3 4 6 6 8 9 6 5 7 8 7 6 3 4 7 4 3 7 7 4 5 5 3 2 4 5 7 9 9 11 13 11 9 7 7
9 8 6 3 2 5 6 4 2 1 1 2 2 2 2 2 4 3 1 4 4 2 3 2 1 1 2 4 5 3 2 3 4 5 3 2 2 2 1 1 2 1 2 0 1 1 1 1 1 1 4 5 4 7 9 6 6 10 9 7 8 10 7 5 5 5 6 8 7 7 7 6 4 5 6 6 6 6 6 7 8 9 12 12 9 7 6 6
11 9 7 2 1 4 4 2 1 1 1 2 3 2 1 2 4 3 1 3 7 7 5 1 1 0 1 3 4 6 10 10 10 10 8 7 7 7 5 3 3 2 1 0 1 0 1 2 1 2 4 4 3 4 4 4 6 9 6 6 11 11 8 7 6 6 8 8 7 6 5 3 2 3 5 5 5 5 5 6 7 9 11 10 7 6 6 7
Wind_Direction
350 348 350 2 2 355 355 358 360 356 355 357 358 359 359 1 3 4 359 348 356 345 281 238 250 251 262 269 274 283 284 281 278 275 280 294 251 242 229 219 213 200 190 184 184 192 186 182 183 174 169 171 174 170 171 173 154 134 113 183 198 195 220 194 192 194 274 317 309 313 331 306 267 122 132 130 149 147 147 158 161 181 201 189 195 185 168 165
358 1 7 16 11 6 3 3 1 355 355 358 1 3 5 10 9 8 10 8 32 38 254 243 254 268 278 285 295 300 301 297 289 284 293 295 247 237 214 210 206 190 179 175 176 174 171 167 170 166 164 166 156 154 157 165 162 135 101 201 217 203 220 208 204 219 258 297 309 307 322 303 206 136 146 143 140 146 140 143 154 163 169 172 179 178 170 165
19 25 30 29 21 15 9 6 2 358 360 2 4 7 12 17 17 16 18 28 44 43 263 272 269 286 291 300 311 315 325 328 343 352 353 352 262 228 212 203 196 185 173 169 169 160 161 158 160 161 162 154 126 147 142 161 173 130 145 230 237 218 248 247 239 246 263 285 297 303 324 311 193 158 163 154 145 163 162 154 155 154 151 158 162 168 169 165
41 42 41 38 28 20 14 10 7 5 6 6 8 12 17 20 21 22 20 30 38 9 279 289 286 296 301 314 323 332 350 44 68 33 29 15 329 210 205 194 188 182 172 170 163 159 157 147 150 152 155 139 105 156 162 180 174 148 192 242 233 179 260 261 258 266 277 277 268 301 326 311 187 176 165 153 153 189 200 178 166 169 166 158 160 166 169 167
51 48 43 39 31 24 18 15 13 11 11 11 12 13 19 22 25 27 21 20 14 336 299 298 295 303 312 323 327 354 12 76 57 28 45 30 48 158 181 183 182 178 175 177 163 158 154 141 141 135 139 129 109 169 191 176 155 166 219 250 238 201 256 274 279 284 285 275 267 304 324 262 186 180 167 167 173 189 200 192 189 183 174 164 167 169 169 169
50 47 42 38 33 29 27 25 22 19 17 14 14 16 19 20 24 28 22 17 8 345 317 303 300 311 316 331 346 18 22 59 40 32 36 33 77 116 158 177 180 177 179 181 167 156 147 140 138 123 110 107 141 205 146 167 178 218 242 250 251 236 248 277 282 285 282 277 280 290 312 267 210 184 173 177 177 148 193 204 212 191 174 169 170 170 171 173
47 44 41 38 35 35 35 34 32 29 25 21 18 19 19 16 20 24 23 22 22 14 343 322 318 323 316 6 27 11 37 41 26 23 22 114 132 121 146 172 179 179 182 183 173 153 141 140 133 114 98 91 157 243 24 180 198 235 272 259 267 252 248 273 276 281 281 277 283 274 284 263 221 195 178 182 170 87 209 214 214 190 172 169 171 171 173 174
42 40 38 38 36 37 39 38 36 34 31 29 25 22 21 23 19 18 21 26 33 28 12 5 353 353 350 23 14 14 57 37 17 16 59 147 167 157 156 174 178 184 190 186 175 154 140 138 117 93 95 84 161 235 262 236 201 214 254 253 268 259 260 279 281 282 284 282 285 270 265 256 216 200 176 190 213 274 64 192 200 185 174 172 172 173 175 174
33 33 33 35 36 39 43 43 39 37 34 31 30 27 27 31 25 16 17 27 41 36 25 29 15 12 36 30 25 55 71 34 21 26 108 141 169 178 182 188 185 193 191 180 171 154 132 121 96 61 68 117 200 250 253 240 200 197 230 251 257 268 278 287 287 285 290 288 282 252 39 79 162 178 168 193 216 235 168 178 185 179 175 175 175 177 177 176
15 23 24 28 33 36 41 42 40 37 34 30 29 29 29 30 30 19 16 28 43 40 36 40 44 46 49 38 37 79 78 37 36 58 110 122 158 190 198 201 195 195 184 177 165 138 107 106 71 26 61 123 251 276 219 210 236 213 238 261 262 274 288 296 293 288 295 290 273 213 62 68 131 177 166 180 202 207 174 171 176 178 179 180 182 180 179 179
343 5 12 16 24 29 33 34 33 32 29 27 25 25 30 31 30 25 22 33 43 42 41 44 63 63 35 30 37 83 83 48 53 77 99 102 112 153 183 189 182 177 168 167 156 120 91 99 22 10 94 257 300 264 209 231 267 261 268 272 269 278 295 320 308 288 302 307 282 141 88 57 175 205 16 173 181 186 178 173 175 179 182 185 186 182 181 182
318 329 349 2 10 17 23 24 24 24 23 23 21 21 28 31 31 29 28 36 44 39 38 42 55 52 23 7 352 91 87 63 68 86 97 101 106 114 123 131 144 153 151 148 138 108 80 49 342 352 331 283 308 258 235 274 268 268 293 286 296 311 27 11 0 346 42 33 83 141 122 49 233 287 354 180 173 179 182 177 176 180 184 186 185 184 185 184
311 309 321 343 358 3 9 15 15 17 19 18 17 17 23 32 33 34 35 40 44 40 39 35 32 29 15 17 69 97 88 74 81 98 104 105 109 112 115 116 124 133 131 122 119 108 31 310 311 314 287 254 263 297 300 300 271 260 341 306 316 331 42 20 8 355 62 56 77 146 174 257 228 320 335 177 174 177 174 173 177 180 184 185 185 187 188 188
304 306 310 321 342 349 352 2 5 9 12 11 13 14 19 31 38 40 39 34 35 35 34 31 30 23 11 51 100 87 47 46 74 110 138 127 114 109 111 110 112 116 112 108 123 231 276 277 288 291 281 256 257 289 302 314 335 301 311 67 339 315 18 17 2 349 63 74 73 163 293 294 267 340 321 181 180 180 169 170 179 182 186 187 187 190 192 194
297 298 302 309 316 326 335 346 355 1 5 6 8 10 18 27 40 47 40 33 29 23 24 27 28 6 337 37 99 73 39 34 58 134 166 153 121 113 115 103 95 97 78 56 338 292 267 253 279 289 288 275 265 286 296 336 42 353 299 114 343 22 351 357 28 30 50 78 60 185 286 312 340 350 272 185 187 188 175 173 181 186 188 189 190 194 197 199
300 295 296 300 303 308 320 331 343 354 1 3 2 4 15 17 26 49 40 32 22 12 12 9 29 26 357 70 90 88 66 48 66 166 166 156 136 130 120 90 92 87 34 355 305 273 245 231 260 296 316 290 213 302 27 83 57 5 15 82 329 20 19 351 70 52 26 310 32 24 299 278 1 359 220 191 192 195 187 181 186 190 191 192 194 197 200 202
310 305 300 297 298 303 311 323 331 349 2 360 358 359 6 4 360 43 35 18 1 352 348 332 24 58 95 111 90 64 44 39 77 169 171 163 164 170 163 88 98 55 9 32 98 196 184 173 219 258 29 63 143 268 292 94 103 63 27 88 331 333 3 347 31 33 13 20 42 25 290 266 322 336 215 196 196 199 197 192 192 194 195 196 198 200 203 205
319 316 311 304 301 303 310 323 325 352 8 359 358 358 358 358 354 77 22 358 341 333 334 331 61 97 155 159 329 9 11 15 94 162 174 168 173 188 204 217 16 15 69 108 94 130 161 163 226 166 59 44 47 30 79 85 102 126 117 113 112 232 268 320 309 9 9 21 56 33 290 300 298 296 210 196 196 201 204 201 199 199 201 201 202 205 207 209
326 326 326 320 312 311 314 327 341 13 13 5 3 0 0 360 2 117 360 341 325 324 341 294 290 301 226 225 293 351 350 10 111 143 160 164 174 190 210 225 272 32 108 124 92 102 144 175 184 155 305 330 64 51 83 165 155 85 110 143 143 168 240 280 274 6 1 357 77 57 320 312 294 296 208 194 192 196 205 204 204 205 206 207 208 210 212 214
328 332 338 338 338 343 2 69 52 37 21 13 9 7 11 6 18 60 342 336 317 322 312 285 281 281 279 263 328 357 353 83 129 141 152 166 177 183 204 221 245 50 72 160 135 74 66 140 178 224 246 256 220 189 107 129 139 107 135 171 182 208 245 258 278 12 1 277 99 65 300 291 285 290 247 191 190 193 201 200 202 206 209 212 214 216 216 217
332 339 347 352 6 53 108 94 64 47 36 33 29 43 44 22 25 329 337 335 327 326 310 286 270 263 263 259 306 338 348 76 146 155 156 175 182 178 193 198 153 99 56 203 188 60 68 117 226 232 233 230 165 149 120 114 133 138 168 186 195 218 238 33 345 359 1 286 85 69 282 269 268 276 273 171 196 203 202 201 202 203 209 215 217 220 220 221
336 346 356 7 53 98 107 80 58 50 55 60 49 59 55 31 12 342 337 312 311 322 310 278 263 259 263 270 293 311 308 291 168 177 180 183 184 187 184 142 135 132 48 201 188 56 67 247 251 229 166 100 84 121 132 119 132 148 164 197 200 217 276 292 195 355 355 305 231 69 301 282 260 278 287 204 210 222 212 211 213 208 208 215 220 223 224 225
344 354 3 25 92 109 99 68 49 52 81 66 44 47 35 14 358 347 336 290 302 322 321 282 263 267 282 286 293 259 224 224 187 198 207 196 184 187 175 139 94 115 123 193 183 179 222 224 203 141 139 124 84 107 130 116 130 161 164 199 219 64 287 250 146 350 2 3 356 243 289 283 266 279 280 263 250 258 250 232 227 220 216 218 223 227 227 227
354 358 3 43 125 124 84 58 41 53 108 39 22 22 5 350 345 340 329 283 293 320 337 326 289 285 294 287 255 181 202 226 228 204 200 195 178 173 174 139 116 179 200 176 159 194 252 147 120 120 139 152 122 133 155 152 164 193 195 214 227 190 227 249 319 320 293 98 51 313 271 261 27 189 181 18 310 273 275 261 234 225 226 227 229 233 233 232
355 2 359 14 189 226 357 315 31 40 7 331 343 344 341 335 332 331 326 285 284 316 345 7 355 326 198 223 197 195 225 247 257 214 191 196 180 159 142 139 158 218 186 141 138 218 283 130 145 139 125 162 151 166 199 190 183 220 217 218 216 192 195 212 309 313 255 175 50 352 288 235 42 145 165 27 329 277 287 308 304 240 229 231 235 238 239 239
352 356 346 285 245 255 289 249 253 330 315 310 315 321 327 328 328 326 321 61 54 341 349 30 54 105 155 221 194 193 216 299 308 229 193 200 192 170 135 125 93 12 156 163 168 245 321 86 146 141 120 149 167 213 209 187 174 215 221 198 180 161 156 160 192 249 291 310 43 359 295 272 305 113 133 6 302 271 295 341 344 344 231 231 238 242 243 242
358 350 341 305 264 258 272 271 277 298 299 295 302 316 322 325 329 315 290 46 60 324 336 216 210 92 159 229 183 171 196 353 2 188 188 195 194 189 186 168 73 121 156 171 98 119 166 119 78 82 104 137 195 251 192 177 169 179 171 151 152 157 162 160 176 213 293 311 299 60 337 278 275 185 122 322 288 276 41 50 343 315 282 245 240 243 245 245
5 348 337 329 299 271 268 272 282 290 290 293 302 314 320 323 326 300 85 71 277 300 3 274 288 21 350 233 195 208 306 340 19 58 187 192 190 191 207 199 181 153 146 204 264 354 172 184 173 159 140 219 243 174 168 178 182 358 95 122 129 132 126 134 149 148 72 288 253 159 104 263 266 206 175 227 261 268 45 16 329 314 312 299 278 265 255 249
2 355 346 350 355 348 311 295 294 291 291 299 306 314 318 317 310 308 89 91 266 311 32 344 358 347 317 308 192 242 282 342 20 68 152 177 190 190 156 178 158 126 94 284 261 251 211 228 204 175 221 253 265 40 169 183 179 112 133 102 84 77 71 79 120 130 107 263 256 225 111 262 269 273 249 230 265 296 356 340 312 313 319 317 308 298 286 269
356 5 6 10 21 9 345 324 307 303 304 309 314 318 327 321 282 88 76 195 269 320 313 321 339 322 327 51 78 343 295 19 19 57 134 148 180 142 93 131 130 119 88 1 279 269 291 238 193 199 237 165 102 69 47 141 118 144 151 99 85 69 59 68 49 67 171 238 253 315 70 251 269 286 254 343 5 296 299 306 309 320 327 326 320 315 308 296
356 29 46 44 48 33 15 2 338 328 319 318 320 320 339 48 84 92 109 233 308 334 339 343 325 350 13 83 59 8 7 8 10 16 115 118 153 112 90 128 129 111 22 3 290 306 326 179 198 268 229 136 112 88 47 50 114 146 162 113 117 70 69 111 62 101 232 243 269 26 44 217 243 247 107 47 306 273 266 279 310 323 327 329 329 328 320 310
21 81 80 56 46 30 22 21 15 9 346 334 331 296 151 107 354 122 268 311 327 340 16 338 327 14 23 51 32 4 359 12 10 23 46 16 72 81 47 232 193 226 286 331 321 331 313 209 285 304 184 152 153 119 94 91 155 175 163 149 209 245 115 228 242 187 238 254 39 34 24 209 241 262 34 44 299 295 268 270 302 316 318 324 331 339 335 325
72 125 97 37 14 8 6 5 5 5 353 346 340 152 110 61 188 199 285 352 54 12 53 325 342 23 356 39 25 349 358 20 350 9 54 336 49 69 9 24 35 272 277 250 335 332 302 266 358 301 142 98 220 192 175 187 186 196 181 172 223 222 154 229 223 239 259 269 46 34 305 254 245 267 23 27 324 341 329 318 321 318 318 324 341 0 1 351
248 214 272 308 340 358 357 350 350 350 347 350 102 127 77 95 192 208 262 289 302 326 46 31 342 26 46 53 359 329 35 44 345 354 14 13 51 54 42 41 26 15 108 156 209 315 285 275 19 324 338 3 278 218 204 125 155 193 174 163 211 200 212 245 225 240 260 280 69 135 210 235 228 52 9 320 340 5 1 354 344 336 341 350 6 26 32 25
280 265 286 279 280 323 343 340 341 347 343 350 91 90 96 195 229 206 211 272 299 311 358 28 58 59 34 24 331 351 42 34 11 12 14 32 57 25 20 11 7 45 130 198 190 135 271 268 289 308 290 319 336 198 106 119 142 119 50 176 215 201 187 241 296 288 291 251 154 190 223 256 280 11 1 329 41 39 14 2 360 354 4 17 24 38 46 45
293 269 280 259 237 271 314 326 336 349 341 12 82 78 185 211 243 171 162 276 281 321 320 1 60 81 21 328 338 10 16 14 19 27 29 53 71 21 340 309 347 36 200 239 193 172 228 261 299 311 300 41 5 193 138 280 177 136 181 189 153 86 126 130 93 48 14 251 213 171 227 232 221 201 132 118 91 54 17 7 6 356 7 26 31 43 52 53
317 276 259 230 219 239 288 336 343 346 344 99 104 167 216 197 196 192 243 299 237 92 79 39 19 71 175 267 309 331 352 11 4 10 36 118 69 22 333 293 315 335 294 246 224 238 245 255 327 323 162 47 354 85 88 35 51 159 200 157 125 112 94 119 218 72 127 246 224 170 230 211 204 199 148 153 157 102 26 7 5 5 22 33 36 49 58 60
338 286 228 208 216 229 259 348 346 337 14 88 111 243 226 167 193 213 296 299 224 91 93 161 3 60 206 206 218 299 332 359 355 12 35 177 86 39 352 287 249 356 337 225 198 51 259 266 325 23 239 341 350 296 125 58 41 27 206 112 126 232 217 159 204 187 215 242 232 191 237 229 221 207 162 171 168 145 118 10 15 25 31 31 40 56 64 65
336 281 212 203 233 254 279 331 336 333 86 65 139 222 219 220 238 245 345 330 186 112 108 212 29 48 183 173 182 242 313 340 94 94 292 206 121 33 15 299 258 350 13 173 174 44 266 275 289 139 262 319 358 282 232 113 76 66 128 113 27 280 251 211 193 218 229 233 241 208 220 228 220 201 167 170 160 155 161 120 61 30 26 34 47 57 65 69
331 289 211 210 250 302 308 321 329 40 84 339 203 194 214 262 278 328 16 11 162 128 29 192 167 151 188 193 221 198 104 29 157 164 267 135 135 356 9 330 286 341 14 105 109 33 112 246 260 299 310 273 291 17 293 263 123 161 193 179 140 102 267 242 161 71 249 210 186 207 234 225 154 157 185 163 155 168 168 142 147 104 42 59 62 63 69 73
343 330 235 242 280 308 309 321 10 73 88 142 201 204 289 305 308 336 7 22 45 129 153 160 159 166 168 196 234 184 151 142 165 182 196 167 187 187 21 333 291 303 336 79 76 15 94 178 248 296 300 267 315 38 320 318 4 274 247 220 189 164 200 225 212 162 295 233 193 189 235 232 107 166 207 153 144 163 173 194 214 129 78 76 75 74 77 79
356 338 297 300 305 303 281 291 43 59 129 139 218 243 290 317 305 329 358 15 27 68 108 125 144 168 170 179 208 176 160 162 182 216 192 138 60 152 326 329 300 267 296 76 33 328 138 125 228 260 279 286 319 349 266 262 230 118 323 277 179 176 201 233 236 198 172 208 106 115 249 243 88 113 222 126 124 161 206 236 236 116 95 94 89 88 87 87
344 323 314 315 311 297 183 214 25 44 206 339 324 251 271 304 278 354 5 11 13 20 18 48 141 174 199 198 179 177 188 200 177 152 176 121 109 191 334 346 328 227 69 132 201 169 152 140 257 258 291 302 293 98 135 210 171 160 12 73 174 235 220 251 260 173 203 192 151 200 242 188 124 27 12 119 132 200 228 236 239 95 101 106 102 100 97 93
335 318 327 345 328 275 184 188 196 130 327 340 357 350 307 302 8 15 5 357 359 21 35 30 92 104 75 79 123 150 185 210 170 96 112 128 144 200 356 15 51 121 36 14 193 179 201 222 219 267 294 291 262 200 187 198 181 223 327 68 254 123 103 117 123 147 226 208 183 234 243 166 130 57 140 179 8 193 198 214 232 120 108 108 102 104 103 99
336 314 350 11 8 56 116 89 128 139 51 4 18 14 347 321 35 21 5 9 19 58 135 30 15 47 53 78 96 77 55 27 339 126 139 103 160 253 8 29 51 63 35 30 76 201 233 209 189 240 260 252 247 247 258 269 231 287 292 202 223 128 132 176 158 185 224 195 183 225 241 127 140 174 199 208 322 196 187 186 183 145 129 118 110 110 107 102
1 359 351 11 33 63 74 58 48 70 82 57 62 27 11 327 353 5 25 54 31 37 62 25 358 21 53 77 111 83 45 36 44 113 124 96 168 326 351 24 42 29 26 45 53 131 161 234 213 232 248 252 257 259 313 11 251 253 255 233 216 140 171 149 154 205 207 173 197 213 236 205 180 187 208 213 205 208 200 181 157 150 149 138 125 120 112 103
43 53 350 358 31 50 59 45 32 25 39 52 64 18 16 324 318 358 49 64 34 39 58 42 22 18 177 113 130 144 64 39 50 105 116 102 237 312 338 10 32 17 18 32 28 78 150 262 206 210 243 253 268 257 139 172 254 256 266 259 238 204 184 187 219 214 135 196 237 197 189 225 201 195 215 216 206 209 216 208 177 159 157 150 137 126 115 103
51 75 55 37 10 20 45 18 9 16 52 33 69 60 21 12 347 1 18 14 25 35 33 52 41 34 37 169 153 150 140 102 52 75 162 143 263 302 11 43 21 21 36 29 17 58 191 254 179 193 245 239 241 244 197 208 247 244 246 255 251 233 206 212 232 207 166 229 249 177 189 218 213 210 227 226 214 207 209 208 187 165 158 153 143 131 116 99
54 70 48 38 57 63 347 337 339 41 50 12 36 52 32 46 32 351 304 338 8 16 14 148 41 22 28 18 127 131 135 190 39 284 203 155 32 243 60 86 43 33 43 35 22 58 226 255 151 188 258 252 238 235 193 212 242 245 241 240 241 244 235 234 243 223 209 244 271 149 210 226 211 216 240 247 203 187 192 194 179 161 155 154 146 131 112 92
50 48 15 21 65 24 355 353 359 75 32 3 34 41 39 68 23 350 341 5 341 338 12 66 43 23 53 51 68 103 44 340 345 358 173 148 61 210 226 213 186 36 32 72 98 80 227 258 102 143 258 262 249 243 226 224 239 249 249 245 243 246 242 242 248 231 232 261 269 203 234 247 235 238 260 279 205 187 193 186 167 156 156 154 143 124 103 79
46 37 16 17 54 359 352 7 21 47 38 18 16 7 32 48 11 336 358 40 39 24 0 329 298 39 58 50 61 67 347 310 289 293 268 241 287 277 252 187 179 256 353 118 171 135 201 234 99 151 260 255 227 244 252 251 258 255 249 247 246 243 234 227 224 202 210 240 241 225 239 255 248 247 255 250 238 230 209 174 156 155 157 151 134 109 84 52
39 32 21 20 28 5 8 17 9 33 91 26 359 345 358 7 354 339 155 69 49 43 32 9 215 113 58 61 47 343 320 307 292 291 281 269 284 285 270 234 195 234 291 145 209 193 184 227 185 191 261 258 218 245 276 312 287 262 236 229 240 239 232 227 222 208 207 220 232 235 247 281 315 272 251 230 221 225 198 159 150 156 158 152 130 91 50 23
Height
1499 1498 1497 1497 1497 1496 1495 1494 1494 1493 1492 1491 1490 1490 1489 1488 1487 1487 1487 1487 1487 1487 1487 1487 1487 1487 1488 1488 1488 1488 1488 1488 1488 1488 1487 1487 1487 1488 1488 1489 1490 1491 1492 1493 1493 1494 1495 1496 1496 1497 1497 1498 1498 1498 1499 1499 1500 1500 1502 1505 1506 1507 1503 1498 1499 1497 1496 1494 1491 1491 1491 1491 1489 1489 1489 1489 1490 1491 1493 1494 1494 1495 1496 1497 1499 1500 1502 1504
1498 1498 1497 1497 1496 1496 1495 1494 1494 1493 1492 1491 1490 1489 1489 1488 1487 1487 1487 1486 1486 1486 1486 1487 1487 1487 1487 1487 1487 1487 1487 1487 1487 1486 1486 1486 1486 1487 1487 1488 1489 1490 1492 1493 1493 1494 1494 1495 1496 1496 1497 1498 1498 1498 1499 1499 1499 1501 1504 1505 1503 1502 1499 1495 1496 1496 1495 1493 1491 1491 1491 1490 1489 1488 1489 1490 1491 1491 1492 1494 1495 1495 1496 1497 1498 1500 1501 1504
1498 1498 1497 1497 1496 1496 1495 1494 1493 1492 1492 1491 1490 1489 1488 1488 1487 1487 1487 1486 1486 1486 1486 1486 1487 1487 1487 1487 1487 1487 1486 1486 1485 1486 1485 1485 1485 1486 1486 1487 1489 1490 1491 1492 1493 1494 1494 1495 1495 1496 1497 1497 1498 1498 1498 1499 1499 1500 1502 1503 1500 1498 1496 1494 1495 1495 1494 1493 1492 1491 1490 1489 1489 1489 1489 1489 1491 1491 1490 1491 1493 1494 1495 1496 1497 1499 1501 1504
1498 1498 1497 1497 1496 1496 1495 1494 1493 1492 1491 1490 1490 1489 1488 1488 1487 1487 1486 1486 1486 1486 1486 1486 1486 1486 1486 1486 1486 1486 1485 1485 1485 1485 1485 1485 1485 1484 1485 1487 1488 1490 1491 1492 1493 1494 1494 1494 1495 1496 1496 1497 1498 1498 1498 1498 1499 1500 1500 1500 1497 1497 1496 1493 1493 1493 1493 1493 1492 1491 1489 1489 1489 1489 1489 1489 1491 1491 1489 1489 1490 1490 1492 1494 1496 1498 1501 1503
1499 1498 1498 1497 1496 1496 1495 1494 1493 1492 1491 1490 1490 1489 1488 1488 1487 1487 1486 1486 1486 1486 1486 1486 1486 1486 1486 1486 1486 1486 1485 1485 1485 1485 1485 1485 1484 1484 1485 1486 1488 1490 1491 1492 1493 1493 1494 1494 1495 1496 1496 1497 1498 1498 1498 1498 1499 1500 1498 1497 1496 1496 1495 1491 1491 1492 1491 1492 1491 1491 1489 1489 1489 1489 1489 1488 1489 1489 1489 1490 1491 1490 1490 1491 1494 1497 1500 1503
1499 1499 1498 1497 1497 1496 1495 1494 1493 1492 1491 1490 1489 1489 1488 1487 1487 1486 1486 1486 1486 1486 1486 1486 1486 1486 1486 1485 1485 1485 1485 1485 1485 1485 1485 1485 1485 1485 1486 1487 1488 1490 1491 1492 1493 1493 1494 1494 1495 1495 1496 1496 1498 1497 1497 1498 1499 1498 1496 1496 1495 1494 1493 1490 1490 1490 1490 1490 1490 1490 1489 1489 1489 1488 1488 1488 1488 1489 1490 1491 1492 1492 1492 1493 1494 1496 1499 1502
1499 1499 1499 1498 1497 1496 1495 1494 1493 1492 1491 1490 1489 1488 1488 1487 1487 1486 1486 1486 1485 1485 1485 1486 1485 1485 1485 1485 1485 1485 1485 1485 1485 1485 1485 1485 1485 1486 1487 1488 1489 1490 1491 1492 1493 1493 1494 1494 1495 1495 1496 1496 1498 1498 1497 1498 1498 1497 1496 1495 1493 1492 1491 1489 1489 1489 1489 1489 1488 1489 1489 1488 1488 1488 1489 1489 1489 1489 1490 1491 1492 1493 1494 1495 1496 1498 1500 1501
1500 1499 1499 1498 1497 1496 1495 1494 1494 1493 1491 1490 1489 1488 1488 1487 1487 1486 1486 1485 1485 1485 1485 1485 1485 1485 1485 1485 1485 1484 1485 1485 1485 1485 1485 1485 1485 1486 1487 1488 1489 1490 1491 1492 1493 1493 1493 1494 1495 1495 1496 1496 1497 1497 1497 1497 1497 1498 1496 1494 1492 1491 1489 1487 1487 1487 1487 1486 1486 1487 1487 1487 1488 1488 1489 1489 1489 1490 1490 1491 1492 1493 1494 1496 1497 1498 1500 1502
1500 1500 1499 1498 1497 1497 1496 1495 1494 1493 1492 1491 1489 1488 1487 1487 1486 1486 1486 1485 1485 1485 1485 1485 1485 1485 1485 1485 1485 1484 1485 1486 1485 1484 1485 1485 1486 1486 1487 1488 1489 1490 1491 1492 1493 1493 1494 1494 1495 1495 1496 1497 1497 1496 1496 1497 1496 1496 1494 1493 1491 1489 1487 1486 1486 1486 1486 1485 1484 1485 1486 1487 1487 1488 1489 1489 1489 1490 1490 1491 1491 1493 1495 1496 1498 1499 1501 1503
1500 1500 1499 1498 1498 1497 1496 1495 1494 1493 1492 1491 1490 1489 1488 1487 1486 1486 1485 1485 1485 1485 1485 1484 1485 1485 1485 1485 1485 1485 1485 1486 1485 1485 1485 1485 1486 1486 1487 1488 1489 1490 1491 1492 1493 1493 1494 1494 1495 1495 1495 1496 1497 1496 1496 1496 1494 1494 1493 1491 1489 1487 1486 1486 1485 1484 1485 1484 1484 1485 1486 1487 1487 1488 1488 1489 1489 1490 1491 1491 1492 1493 1495 1496 1497 1499 1501 1503
1500 1500 1499 1498 1498 1497 1496 1495 1494 1493 1492 1491 1490 1489 1488 1487 1486 1486 1485 1485 1485 1484 1484 1484 1484 1485 1485 1485 1485 1485 1485 1486 1486 1486 1485 1486 1486 1487 1487 1488 1488 1490 1491 1492 1493 1494 1494 1495 1495 1495 1495 1496 1496 1496 1495 1494 1493 1493 1492 1490 1487 1486 1486 1485 1484 1484 1484 1484 1485 1485 1487 1487 1487 1487 1488 1488 1489 1490 1491 1491 1493 1494 1495 1496 1498 1500 1502 1504
1499 1499 1499 1498 1497 1497 1496 1495 1494 1493 1492 1491 1490 1489 1488 1487 1486 1486 1485 1485 1485 1484 1484 1484 1484 1484 1485 1485 1485 1485 1485 1486 1487 1487 1487 1486 1487 1487 1488 1488 1489 1490 1492 1493 1494 1494 1494 1495 1495 1495 1495 1495 1495 1495 1494 1494 1493 1492 1492 1489 1485 1484 1485 1484 1484 1484 1484 1485 1485 1485 1487 1488 1487 1487 1488 1488 1488 1490 1491 1492 1493 1494 1495 1496 1498 1500 1502 1504
1499 1499 1498 1498 1497 1496 1496 1495 1494 1493 1492 1491 1490 1489 1488 1487 1487 1486 1485 1485 1485 1484 1484 1484 1484 1484 1484 1484 1484 1485 1486 1487 1487 1488 1488 1487 1488 1488 1488 1489 1490 1491 1492 1493 1493 1494 1494 1494 1495 1495 1495 1495 1495 1494 1493 1492 1492 1491 1491 1490 1487 1485 1484 1484 1485 1484 1484 1486 1485 1485 1491 1491 1487 1488 1488 1488 1489 1489 1490 1491 1493 1494 1495 1496 1498 1500 1502 1503
1498 1498 1498 1497 1497 1496 1495 1495 1494 1493 1492 1491 1490 1489 1488 1488 1487 1486 1486 1485 1485 1485 1484 1484 1484 1484 1484 1484 1485 1485 1486 1486 1487 1488 1488 1488 1488 1489 1489 1490 1490 1491 1492 1493 1493 1494 1494 1494 1494 1494 1494 1494 1494 1493 1493 1492 1491 1491 1491 1492 1494 1491 1487 1485 1486 1484 1483 1487 1486 1486 1493 1491 1486 1489 1489 1489 1490 1490 1490 1491 1493 1494 1495 1497 1498 1500 1502 1503
1497 1497 1497 1496 1496 1496 1495 1494 1494 1493 1492 1491 1490 1489 1488 1488 1487 1487 1486 1485 1485 1485 1484 1484 1484 1484 1484 1484 1485 1485 1486 1486 1487 1487 1487 1488 1489 1489 1489 1490 1491 1491 1492 1492 1492 1493 1493 1494 1494 1494 1494 1493 1493 1493 1492 1491 1492 1493 1493 1495 1498 1494 1489 1487 1486 1486 1486 1488 1486 1487 1492 1490 1488 1490 1490 1490 1491 1491 1491 1491 1492 1493 1495 1496 1498 1500 1501 1502
1496 1496 1496 1495 1495 1495 1494 1494 1493 1493 1492 1491 1490 1489 1488 1488 1487 1487 1486 1486 1485 1485 1484 1484 1484 1484 1483 1484 1485 1485 1485 1486 1486 1487 1487 1488 1488 1489 1489 1490 1491 1491 1491 1492 1492 1492 1493 1493 1493 1494 1493 1492 1493 1493 1492 1493 1494 1495 1495 1497 1499 1495 1490 1488 1486 1488 1488 1487 1486 1488 1491 1489 1490 1491 1490 1491 1491 1492 1493 1492 1493 1493 1494 1496 1497 1499 1500 1501
1495 1495 1495 1494 1494 1494 1494 1493 1493 1492 1492 1491 1490 1489 1488 1487 1487 1486 1486 1486 1485 1485 1484 1484 1484 1484 1483 1483 1485 1485 1485 1485 1486 1486 1487 1487 1488 1489 1489 1490 1491 1491 1491 1491 1491 1492 1492 1493 1493 1493 1493 1494 1495 1492 1495 1499 1498 1497 1497 1499 1502 1500 1495 1491 1488 1488 1488 1487 1488 1490 1490 1489 1490 1491 1491 1491 1492 1493 1493 1492 1493 1493 1494 1496 1497 1498 1499 1501
1494 1494 1494 1493 1493 1493 1493 1493 1492 1492 1492 1491 1490 1489 1488 1487 1486 1486 1486 1485 1485 1484 1484 1483 1484 1484 1484 1484 1484 1484 1484 1485 1485 1486 1486 1487 1488 1488 1489 1490 1490 1491 1491 1491 1491 1492 1492 1493 1493 1493 1493 1494 1495 1493 1497 1502 1500 1498 1498 1498 1501 1502 1500 1496 1491 1489 1489 1488 1490 1492 1490 1489 1489 1490 1490 1491 1491 1493 1493 1493 1493 1494 1495 1496 1497 1497 1498 1499
1493 1493 1493 1493 1493 1493 1493 1492 1492 1492 1491 1490 1490 1489 1488 1487 1486 1485 1485 1485 1484 1483 1483 1483 1483 1484 1485 1483 1483 1484 1484 1484 1484 1485 1486 1487 1487 1488 1489 1489 1490 1490 1490 1490 1491 1492 1492 1493 1493 1494 1495 1494 1495 1494 1496 1499 1498 1497 1499 1498 1498 1498 1497 1495 1492 1492 1493 1491 1491 1492 1491 1490 1488 1487 1489 1490 1491 1493 1493 1494 1494 1494 1495 1496 1496 1496 1497 1498
1493 1492 1492 1492 1492 1492 1492 1492 1492 1492 1491 1490 1490 1489 1488 1487 1486 1485 1485 1483 1483 1483 1482 1483 1482 1483 1483 1482 1482 1483 1483 1483 1484 1484 1485 1486 1487 1488 1488 1489 1489 1489 1490 1490 1491 1492 1492 1494 1496 1495 1494 1494 1495 1496 1497 1498 1499 1499 1500 1499 1499 1498 1494 1492 1493 1494 1495 1492 1491 1494 1493 1491 1489 1486 1489 1490 1491 1492 1493 1494 1494 1494 1494 1495 1495 1495 1496 1497
1492 1492 1491 1491 1491 1492 1492 1492 1492 1491 1491 1490 1490 1489 1488 1488 1488 1487 1485 1482 1482 1482 1482 1482 1482 1481 1481 1482 1482 1482 1482 1483 1483 1484 1485 1485 1486 1487 1488 1489 1489 1489 1491 1492 1492 1492 1493 1495 1495 1493 1493 1494 1495 1498 1498 1499 1500 1500 1500 1498 1499 1500 1494 1492 1494 1495 1496 1493 1493 1496 1493 1489 1488 1486 1488 1490 1490 1490 1491 1492 1492 1492 1493 1493 1494 1494 1495 1496
1492 1491 1491 1491 1491 1491 1491 1492 1491 1491 1491 1490 1490 1489 1489 1489 1489 1489 1487 1484 1481 1481 1481 1480 1480 1480 1481 1481 1482 1482 1482 1482 1483 1484 1484 1485 1485 1485 1487 1488 1489 1490 1492 1492 1492 1493 1495 1494 1492 1492 1494 1496 1497 1499 1498 1499 1501 1500 1501 1499 1498 1499 1496 1494 1495 1495 1496 1492 1491 1496 1493 1488 1488 1487 1488 1489 1489 1489 1490 1490 1490 1491 1491 1492 1492 1493 1494 1495
1491 1491 1491 1491 1491 1491 1491 1491 1491 1491 1491 1490 1490 1489 1489 1489 1489 1488 1488 1486 1482 1480 1479 1479 1479 1480 1480 1481 1481 1481 1482 1482 1482 1483 1483 1484 1484 1485 1486 1487 1489 1491 1491 1491 1491 1494 1495 1492 1491 1493 1494 1494 1496 1499 1499 1498 1500 1500 1499 1498 1497 1500 1498 1494 1493 1495 1497 1495 1493 1496 1493 1488 1488 1488 1488 1489 1489 1488 1489 1490 1489 1490 1490 1490 1491 1492 1493 1494
1491 1491 1491 1491 1491 1491 1491 1491 1491 1491 1491 1490 1490 1489 1489 1489 1488 1488 1487 1487 1484 1480 1479 1479 1479 1479 1480 1480 1480 1481 1481 1481 1482 1481 1482 1483 1484 1485 1485 1487 1490 1490 1490 1490 1491 1492 1492 1490 1492 1494 1494 1493 1495 1498 1498 1495 1497 1499 1498 1496 1496 1497 1496 1494 1494 1495 1495 1496 1496 1495 1491 1488 1489 1489 1488 1488 1489 1488 1487 1488 1488 1489 1490 1491 1491 1491 1491 1492
1491 1491 1491 1490 1491 1491 1491 1491 1491 1491 1490 1490 1490 1489 1489 1488 1488 1487 1487 1488 1486 1481 1479 1479 1479 1479 1479 1480 1480 1480 1480 1480 1480 1481 1481 1482 1483 1484 1485 1486 1488 1489 1491 1492 1492 1491 1489 1491 1492 1492 1493 1494 1494 1495 1495 1493 1494 1497 1495 1492 1491 1492 1492 1494 1496 1495 1494 1495 1498 1497 1495 1492 1489 1489 1489 1489 1489 1487 1486 1486 1487 1488 1489 1490 1490 1489 1489 1490
1491 1490 1490 1490 1490 1490 1491 1491 1490 1491 1490 1490 1490 1489 1488 1488 1487 1487 1487 1489 1487 1481 1479 1479 1479 1479 1479 1479 1479 1480 1481 1481 1479 1480 1481 1481 1482 1483 1485 1487 1487 1488 1490 1492 1491 1490 1490 1492 1492 1491 1492 1493 1493 1493 1493 1493 1495 1495 1490 1488 1491 1491 1492 1494 1494 1494 1495 1497 1499 1500 1499 1497 1491 1486 1488 1491 1489 1486 1486 1487 1487 1488 1488 1488 1488 1487 1487 1487
1491 1490 1490 1490 1490 1490 1490 1490 1490 1490 1489 1489 1489 1488 1488 1487 1486 1486 1487 1492 1490 1483 1480 1479 1479 1479 1479 1479 1479 1480 1482 1481 1479 1479 1480 1481 1482 1482 1483 1486 1487 1487 1489 1490 1491 1490 1490 1491 1492 1492 1491 1492 1491 1489 1490 1492 1492 1491 1489 1489 1491 1491 1491 1493 1493 1495 1497 1498 1499 1499 1498 1499 1495 1488 1489 1491 1488 1484 1485 1487 1487 1487 1487 1486 1485 1485 1485 1484
1491 1490 1489 1489 1489 1489 1489 1489 1489 1489 1489 1489 1488 1488 1487 1486 1487 1485 1489 1497 1494 1483 1480 1479 1478 1479 1478 1479 1479 1479 1480 1480 1479 1480 1479 1480 1481 1481 1482 1484 1485 1486 1487 1489 1491 1491 1489 1489 1490 1490 1490 1489 1486 1485 1488 1489 1489 1490 1492 1492 1492 1492 1493 1493 1494 1496 1500 1501 1497 1496 1498 1501 1496 1489 1489 1490 1487 1484 1485 1487 1487 1486 1485 1484 1483 1483 1482 1481
1490 1490 1489 1489 1489 1489 1489 1488 1488 1488 1488 1488 1487 1487 1486 1485 1486 1485 1491 1498 1490 1480 1480 1479 1477 1479 1478 1478 1479 1479 1478 1479 1479 1480 1479 1480 1481 1481 1482 1482 1483 1485 1487 1488 1488 1488 1488 1488 1488 1488 1488 1486 1484 1486 1488 1487 1488 1491 1494 1493 1493 1496 1497 1496 1497 1496 1500 1504 1498 1496 1500 1501 1497 1489 1486 1487 1487 1487 1488 1488 1487 1486 1484 1483 1482 1481 1480 1479
1490 1489 1489 1489 1488 1489 1488 1488 1488 1487 1487 1487 1486 1486 1485 1485 1486 1490 1497 1496 1487 1481 1480 1478 1478 1479 1478 1478 1479 1479 1479 1479 1479 1479 1479 1480 1481 1481 1482 1483 1483 1485 1487 1488 1487 1486 1487 1487 1487 1487 1485 1484 1486 1490 1491 1489 1490 1492 1492 1491 1492 1496 1497 1498 1500 1498 1502 1506 1499 1500 1504 1503 1500 1492 1487 1490 1491 1492 1492 1488 1486 1485 1484 1482 1480 1479 1478 1476
1490 1489 1489 1489 1489 1488 1488 1488 1487 1487 1487 1486 1486 1485 1485 1486 1488 1495 1498 1491 1486 1483 1480 1479 1480 1480 1479 1480 1481 1481 1480 1480 1480 1479 1479 1480 1480 1481 1482 1483 1483 1485 1488 1487 1486 1486 1486 1486 1486 1484 1483 1485 1485 1488 1492 1491 1491 1492 1490 1489 1493 1497 1498 1500 1501 1502 1508 1507 1500 1507 1510 1506 1503 1494 1488 1493 1494 1493 1493 1489 1487 1486 1484 1482 1480 1478 1476 1474
1489 1489 1489 1489 1489 1488 1488 1488 1487 1486 1486 1485 1485 1484 1485 1489 1493 1496 1493 1487 1487 1486 1482 1482 1482 1481 1482 1482 1483 1484 1482 1481 1481 1481 1482 1482 1482 1483 1485 1485 1485 1488 1492 1492 1489 1486 1483 1482 1484 1483 1482 1484 1483 1486 1492 1492 1491 1491 1488 1491 1496 1500 1505 1507 1505 1507 1509 1503 1503 1511 1511 1505 1499 1489 1488 1494 1493 1491 1492 1490 1489 1488 1486 1484 1481 1478 1475 1473
1489 1489 1489 1489 1489 1488 1488 1487 1486 1486 1485 1485 1485 1484 1486 1493 1496 1495 1492 1488 1487 1486 1483 1484 1483 1483 1483 1482 1485 1486 1484 1484 1483 1482 1484 1484 1483 1486 1489 1489 1487 1488 1492 1495 1495 1490 1484 1481 1482 1482 1481 1482 1482 1483 1488 1489 1489 1489 1487 1491 1495 1502 1515 1517 1513 1515 1510 1501 1506 1512 1509 1502 1495 1488 1490 1493 1491 1491 1491 1491 1490 1489 1488 1485 1482 1480 1476 1473
1489 1489 1489 1489 1488 1488 1487 1487 1486 1485 1485 1484 1484 1485 1490 1495 1496 1494 1491 1488 1487 1485 1484 1485 1484 1484 1484 1485 1488 1487 1485 1486 1485 1483 1483 1483 1485 1488 1489 1490 1489 1488 1489 1495 1496 1494 1493 1488 1483 1481 1482 1483 1482 1481 1483 1484 1487 1490 1488 1488 1491 1495 1505 1509 1506 1506 1503 1500 1507 1511 1506 1498 1491 1490 1493 1491 1491 1492 1491 1491 1490 1489 1488 1486 1483 1481 1478 1475
1489 1489 1488 1488 1488 1487 1487 1486 1486 1485 1484 1484 1484 1488 1492 1494 1494 1493 1490 1487 1486 1485 1485 1486 1484 1484 1487 1488 1489 1488 1486 1486 1486 1485 1485 1486 1490 1492 1491 1490 1490 1490 1490 1493 1497 1498 1499 1492 1483 1483 1483 1482 1482 1482 1482 1482 1485 1492 1491 1487 1489 1487 1490 1502 1508 1506 1503 1503 1505 1506 1501 1494 1490 1491 1492 1491 1492 1492 1491 1491 1490 1489 1488 1486 1484 1481 1478 1476
1488 1488 1487 1487 1487 1487 1486 1486 1485 1484 1484 1483 1485 1490 1491 1491 1491 1491 1489 1486 1486 1485 1484 1485 1485 1486 1489 1489 1489 1489 1487 1486 1486 1486 1488 1492 1494 1494 1494 1492 1491 1491 1489 1491 1495 1496 1497 1490 1483 1484 1483 1482 1483 1482 1482 1482 1483 1491 1491 1486 1488 1487 1487 1500 1513 1517 1514 1506 1502 1503 1499 1492 1491 1492 1491 1492 1492 1491 1492 1492 1490 1490 1488 1486 1485 1481 1479 1477
1487 1487 1486 1486 1486 1486 1486 1485 1484 1484 1483 1483 1486 1489 1490 1489 1488 1488 1487 1485 1486 1485 1485 1487 1487 1488 1491 1491 1490 1489 1487 1487 1488 1487 1489 1494 1494 1493 1494 1492 1490 1491 1489 1490 1492 1493 1494 1489 1483 1484 1483 1482 1483 1482 1482 1482 1482 1486 1487 1484 1487 1490 1490 1494 1504 1514 1516 1508 1503 1505 1501 1493 1491 1491 1490 1492 1493 1492 1493 1492 1491 1491 1488 1487 1486 1483 1481 1480
1486 1486 1485 1485 1485 1485 1485 1484 1484 1483 1483 1483 1487 1489 1489 1488 1486 1486 1486 1485 1485 1484 1485 1487 1488 1489 1492 1492 1491 1490 1489 1489 1489 1489 1490 1493 1494 1494 1494 1493 1490 1490 1489 1489 1489 1493 1495 1490 1485 1486 1485 1483 1482 1482 1482 1483 1483 1483 1483 1484 1486 1489 1490 1493 1500 1505 1508 1509 1507 1506 1506 1500 1490 1487 1489 1490 1492 1493 1493 1493 1492 1491 1490 1489 1487 1485 1483 1482
1486 1485 1485 1484 1484 1484 1484 1483 1483 1482 1482 1484 1488 1489 1487 1486 1486 1485 1485 1484 1484 1484 1485 1487 1488 1489 1491 1490 1490 1491 1491 1490 1491 1492 1492 1492 1494 1494 1494 1494 1491 1490 1489 1489 1490 1493 1495 1493 1489 1486 1486 1485 1482 1482 1484 1484 1484 1484 1483 1486 1488 1489 1490 1492 1495 1495 1496 1507 1510 1504 1503 1496 1485 1485 1488 1487 1491 1493 1493 1493 1493 1492 1492 1490 1489 1487 1485 1484
1485 1484 1484 1483 1483 1483 1483 1482 1482 1482 1482 1485 1488 1487 1486 1486 1485 1484 1484 1484 1483 1483 1485 1487 1488 1488 1489 1490 1490 1491 1492 1491 1491 1492 1492 1492 1493 1493 1494 1495 1492 1490 1489 1489 1491 1493 1494 1496 1493 1487 1485 1486 1485 1485 1487 1485 1485 1485 1485 1487 1489 1493 1495 1493 1495 1495 1494 1501 1509 1508 1501 1488 1483 1488 1488 1485 1489 1492 1492 1493 1493 1493 1493 1491 1490 1489 1487 1486
1484 1484 1483 1482 1482 1482 1482 1482 1482 1483 1484 1487 1488 1487 1486 1485 1484 1484 1484 1483 1483 1483 1484 1485 1486 1486 1487 1489 1489 1489 1491 1492 1491 1491 1491 1492 1493 1494 1494 1494 1494 1492 1490 1488 1490 1493 1493 1495 1496 1491 1486 1486 1487 1489 1491 1489 1489 1487 1486 1486 1487 1489 1492 1492 1496 1500 1497 1497 1503 1506 1500 1486 1483 1490 1489 1486 1490 1491 1493 1494 1493 1494 1493 1491 1491 1490 1489 1488
1484 1483 1482 1481 1481 1481 1481 1482 1484 1486 1485 1485 1486 1485 1485 1485 1484 1484 1484 1483 1483 1483 1483 1484 1485 1486 1487 1487 1488 1489 1489 1490 1491 1491 1491 1492 1494 1494 1494 1494 1493 1492 1490 1491 1493 1493 1493 1495 1496 1493 1489 1487 1489 1492 1493 1492 1491 1490 1489 1489 1488 1487 1487 1488 1493 1496 1497 1499 1500 1502 1500 1490 1485 1489 1489 1488 1491 1492 1494 1494 1494 1494 1493 1492 1492 1491 1490 1489
1483 1483 1481 1480 1480 1480 1480 1482 1484 1486 1485 1484 1485 1485 1485 1485 1484 1484 1484 1484 1483 1483 1483 1484 1485 1486 1486 1487 1488 1488 1488 1489 1491 1492 1492 1494 1495 1495 1494 1493 1492 1492 1491 1492 1493 1493 1494 1495 1496 1494 1491 1488 1488 1491 1493 1493 1492 1490 1490 1492 1492 1489 1487 1488 1490 1491 1493 1497 1497 1501 1502 1492 1486 1490 1490 1490 1492 1492 1493 1494 1493 1494 1493 1493 1493 1492 1491 1491
1483 1482 1481 1480 1478 1478 1480 1482 1483 1484 1485 1485 1485 1484 1484 1485 1485 1485 1485 1485 1484 1484 1484 1485 1485 1485 1486 1488 1488 1488 1489 1489 1491 1493 1494 1494 1494 1494 1494 1492 1491 1491 1491 1491 1492 1492 1493 1495 1497 1498 1498 1495 1492 1492 1491 1489 1490 1489 1491 1495 1495 1492 1492 1493 1493 1494 1493 1494 1494 1495 1495 1489 1487 1491 1490 1490 1492 1491 1492 1493 1493 1493 1493 1493 1493 1492 1492 1492
1482 1481 1480 1480 1478 1477 1480 1484 1484 1485 1487 1487 1486 1486 1486 1485 1485 1485 1485 1485 1486 1486 1485 1485 1486 1486 1487 1488 1488 1489 1491 1489 1490 1492 1494 1494 1494 1494 1494 1493 1491 1491 1491 1492 1491 1491 1493 1495 1496 1497 1502 1503 1500 1496 1492 1489 1491 1492 1493 1495 1495 1494 1494 1491 1492 1493 1493 1496 1496 1492 1488 1486 1487 1490 1489 1489 1491 1490 1491 1492 1491 1493 1493 1492 1493 1493 1492 1492
1483 1482 1482 1482 1480 1479 1483 1486 1486 1486 1487 1487 1487 1489 1489 1487 1486 1486 1486 1486 1486 1486 1486 1486 1486 1486 1487 1488 1488 1490 1491 1491 1491 1492 1493 1494 1494 1494 1494 1493 1492 1492 1492 1492 1491 1492 1495 1496 1495 1494 1495 1496 1493 1492 1494 1494 1493 1492 1491 1492 1493 1495 1495 1492 1492 1492 1491 1495 1496 1490 1488 1488 1486 1488 1488 1488 1489 1490 1489 1489 1490 1491 1492 1492 1492 1492 1492 1493
1485 1486 1488 1486 1484 1484 1485 1487 1488 1488 1489 1488 1488 1490 1491 1489 1488 1486 1486 1486 1487 1487 1487 1488 1488 1487 1487 1488 1488 1490 1492 1493 1492 1492 1494 1496 1495 1494 1494 1493 1493 1492 1492 1492 1491 1493 1495 1495 1496 1496 1493 1492 1491 1492 1497 1499 1494 1491 1492 1491 1491 1493 1495 1493 1491 1489 1490 1493 1492 1488 1489 1489 1485 1484 1485 1485 1486 1488 1488 1488 1488 1488 1490 1491 1491 1491 1492 1492
1487 1490 1491 1490 1489 1489 1489 1489 1490 1490 1490 1490 1491 1492 1492 1491 1490 1489 1488 1487 1487 1487 1487 1488 1489 1489 1489 1489 1488 1489 1492 1493 1493 1494 1496 1496 1495 1494 1493 1494 1494 1493 1492 1493 1492 1493 1495 1494 1497 1498 1494 1494 1495 1496 1498 1498 1495 1494 1495 1493 1491 1492 1494 1493 1489 1488 1489 1489 1485 1483 1485 1485 1483 1482 1481 1481 1483 1484 1485 1486 1487 1487 1488 1489 1491 1491 1491 1492
1490 1491 1492 1492 1492 1493 1492 1491 1491 1491 1491 1491 1492 1493 1494 1493 1492 1492 1492 1490 1488 1488 1488 1488 1490 1491 1491 1491 1489 1489 1492 1493 1493 1496 1496 1495 1496 1495 1493 1494 1494 1493 1493 1494 1493 1495 1495 1494 1497 1499 1495 1493 1494 1495 1497 1497 1495 1494 1493 1492 1492 1492 1492 1491 1488 1488 1489 1486 1484 1486 1485 1481 1480 1480 1479 1480 1482 1483 1484 1485 1486 1486 1487 1488 1490 1490 1490 1491
1492 1493 1493 1492 1492 1493 1493 1492 1492 1491 1492 1492 1493 1494 1495 1495 1494 1494 1494 1492 1491 1490 1490 1490 1491 1492 1492 1492 1491 1493 1496 1495 1494 1495 1495 1495 1496 1496 1495 1494 1494 1494 1494 1494 1495 1496 1495 1495 1499 1499 1496 1494 1492 1493 1495 1495 1494 1492 1490 1490 1492 1492 1491 1491 1491 1491 1491 1489 1488 1490 1488 1483 1480 1480 1480 1481 1482 1483 1484 1485 1485 1485 1486 1487 1488 1489 1489 1490
1495 1495 1494 1494 1494 1494 1493 1493 1493 1493 1493 1495 1495 1495 1495 1496 1496 1496 1495 1495 1494 1493 1492 1492 1492 1492 1493 1492 1493 1495 1498 1498 1496 1496 1495 1495 1495 1494 1494 1494 1494 1494 1494 1494 1496 1495 1495 1497 1499 1499 1498 1494 1492 1492 1491 1491 1493 1492 1491 1491 1491 1488 1488 1489 1489 1489 1488 1486 1485 1488 1487 1482 1479 1479 1480 1481 1481 1482 1483 1484 1484 1485 1486 1486 1487 1487 1488 1489
1496 1496 1495 1495 1495 1496 1495 1495 1495 1494 1495 1498 1498 1497 1497 1497 1497 1496 1495 1495 1495 1495 1494 1493 1493 1493 1493 1494 1495 1496 1496 1496 1495 1495 1495 1495 1494 1494 1494 1493 1494 1494 1494 1495 1496 1495 1495 1496 1497 1499 1499 1495 1493 1493 1493 1494 1495 1490 1487 1488 1486 1483 1484 1484 1483 1484 1483 1482 1482 1482 1480 1477 1478 1480 1479 1479 1480 1481 1482 1483 1484 1484 1485 1486 1486 1487 1487 1488